TimeEDT,TemperatureF,Dew PointF,Humidity,Sea Level PressureIn,VisibilityMPH,Wind Direction,Wind SpeedMPH,Gust SpeedMPH,PrecipitationIn,Events,Conditions,WindDirDegrees,DateUTC
12:53 AM,72.0,64.9,78,30.05,10.0,Calm,Calm,-,N/A,,Clear,0,2013-06-09 04:53:00
1:53 AM,70.0,64.9,84,30.05,10.0,South,3.5,-,N/A,,Clear,190,2013-06-09 05:53:00
2:53 AM,69.1,64.9,87,30.04,10.0,South,4.6,-,N/A,,Clear,190,2013-06-09 06:53:00
3:53 AM,68.0,64.9,90,30.04,10.0,Calm,Calm,-,N/A,,Clear,0,2013-06-09 07:53:00
4:53 AM,66.9,64.9,93,30.06,10.0,Calm,Calm,-,N/A,,Partly Cloudy,0,2013-06-09 08:53:00
5:53 AM,66.9,64.0,90,30.07,9.0,Calm,Calm,-,N/A,,Mostly Cloudy,0,2013-06-09 09:53:00
6:53 AM,66.9,64.9,93,30.09,5.0,Calm,Calm,-,N/A,,Mostly Cloudy,0,2013-06-09 10:53:00
7:53 AM,69.1,66.9,93,30.11,7.0,Calm,Calm,-,N/A,,Partly Cloudy,0,2013-06-09 11:53:00
8:53 AM,73.0,66.0,79,30.11,10.0,Calm,Calm,-,N/A,,Partly Cloudy,0,2013-06-09 12:53:00
9:53 AM,75.9,68.0,76,30.11,10.0,Variable,3.5,-,N/A,,Mostly Cloudy,0,2013-06-09 13:53:00
10:53 AM,80.1,66.0,62,30.09,10.0,Calm,Calm,-,N/A,,Partly Cloudy,0,2013-06-09 14:53:00
11:53 AM,80.1,66.9,64,30.09,10.0,SSW,4.6,-,N/A,,Mostly Cloudy,210,2013-06-09 15:53:00
12:53 PM,82.0,66.9,60,30.08,10.0,Calm,Calm,-,N/A,,Mostly Cloudy,0,2013-06-09 16:53:00
1:53 PM,82.9,66.9,58,30.04,10.0,Variable,3.5,-,N/A,,Mostly Cloudy,0,2013-06-09 17:53:00
2:53 PM,82.9,66.0,56,30.02,10.0,Variable,3.5,-,N/A,,Mostly Cloudy,0,2013-06-09 18:53:00
3:37 PM,78.8,66.2,65,30.07,5.0,SSW,18.4,29.9,0.01,Rain-Thunderstorm,Thunderstorms and Rain,200,2013-06-09 19:37:00
3:46 PM,71.6,68.0,88,30.09,1.0,South,11.5,27.6,0.17,Rain-Thunderstorm,Heavy Thunderstorms and Rain,190,2013-06-09 19:46:00
3:53 PM,71.1,68.0,90,30.02,0.8,Variable,3.5,17.3,0.33,Rain-Thunderstorm,Heavy Thunderstorms and Rain,0,2013-06-09 19:53:00
4:00 PM,71.6,64.4,78,30.09,3.0,Calm,Calm,-,0.01,Rain-Thunderstorm,Light Rain,0,2013-06-09 20:00:00
4:16 PM,69.8,66.2,88,30.09,1.8,Calm,Calm,-,0.07,Rain-Thunderstorm,Heavy Rain,0,2013-06-09 20:16:00
4:24 PM,71.6,68.0,88,30.08,3.0,NNE,5.8,-,0.08,Rain-Thunderstorm,Light Rain,30,2013-06-09 20:24:00
4:53 PM,71.1,68.0,90,30.04,6.0,West,10.4,-,0.08,Thunderstorm,Mostly Cloudy,280,2013-06-09 20:53:00
5:26 PM,69.8,66.2,88,30.11,5.0,NW,9.2,-,0.03,Rain-Thunderstorm,Light Rain,310,2013-06-09 21:26:00
5:39 PM,69.8,66.2,88,30.11,6.0,WNW,4.6,-,0.04,Rain-Thunderstorm,Light Rain,300,2013-06-09 21:39:00
5:47 PM,69.8,66.2,88,30.13,3.0,East,9.2,-,0.06,Rain-Thunderstorm,Thunderstorms and Rain,90,2013-06-09 21:47:00
5:53 PM,69.1,66.9,93,30.07,2.0,Variable,5.8,17.3,0.09,Rain-Thunderstorm,Heavy Thunderstorms and Rain,0,2013-06-09 21:53:00
5:59 PM,69.8,66.2,88,30.12,3.0,East,3.5,-,0.01,Rain-Thunderstorm,Thunderstorms and Rain,80,2013-06-09 21:59:00
6:04 PM,69.8,66.2,88,30.11,5.0,Calm,Calm,-,0.01,Rain,Light Rain,0,2013-06-09 22:04:00
6:53 PM,71.1,68.0,90,30.06,5.0,Calm,Calm,-,0.05,Rain,Light Rain,0,2013-06-09 22:53:00
7:00 PM,69.8,68.0,94,30.11,3.0,Variable,3.5,-,0.02,Rain,Rain,0,2013-06-09 23:00:00
7:07 PM,71.6,68.0,88,30.10,3.0,Calm,Calm,-,0.03,Rain,Light Rain,0,2013-06-09 23:07:00
7:26 PM,71.6,69.8,94,30.11,9.0,Calm,Calm,-,0.03,Rain,Light Rain,0,2013-06-09 23:26:00
7:42 PM,71.6,69.8,94,30.11,7.0,Calm,Calm,-,0.03,,Mostly Cloudy,0,2013-06-09 23:42:00
7:53 PM,71.1,69.1,93,30.06,8.0,South,3.5,-,0.03,,Mostly Cloudy,190,2013-06-09 23:53:00
8:24 PM,71.6,68.0,88,30.12,10.0,Calm,Calm,-,N/A,,Overcast,0,2013-06-10 00:24:00
8:51 PM,69.8,68.0,94,30.12,10.0,Calm,Calm,-,N/A,,Overcast,0,2013-06-10 00:51:00
8:53 PM,70.0,68.0,93,30.06,10.0,Variable,3.5,-,N/A,,Overcast,0,2013-06-10 00:53:00
9:02 PM,69.8,68.0,94,30.11,9.0,Calm,Calm,-,0.00,Rain,Light Rain,0,2013-06-10 01:02:00
9:15 PM,69.8,66.2,88,30.11,10.0,SSW,3.5,-,0.00,,Overcast,200,2013-06-10 01:15:00
9:25 PM,69.8,66.2,88,30.11,9.0,Calm,Calm,-,0.00,,Overcast,0,2013-06-10 01:25:00
9:53 PM,69.1,66.9,93,30.06,10.0,Calm,Calm,-,0.01,,Mostly Cloudy,0,2013-06-10 01:53:00
10:53 PM,69.1,66.0,90,30.06,10.0,Calm,Calm,-,0.01,Rain,Light Rain,0,2013-06-10 02:53:00
11:53 PM,69.1,66.9,93,30.04,10.0,Calm,Calm,-,0.00,,Overcast,0,2013-06-10 03:53:00